| time (UTC) | temp F | wind direction | speed MPH | gust MPH | rain 1hr in | rain 24hr in | rain mn in | humidity % | barometer mb |
| 20260503204551 | 0 | 307 | 1.0 | 7.0 | 0.00 | 0.00 | 0.00 | 1008.6 | |
| 20260503203053 | 0 | 310 | 3.0 | 9.0 | 0.00 | 0.00 | 0.00 | 1008.8 | |
| 20260503201545 | 0 | 295 | 1.0 | 3.0 | 0.00 | 0.00 | 0.00 | 1009.0 | |
| 20260503200038 | 0 | 296 | 1.0 | 10.0 | 0.00 | 0.00 | 0.00 | 1009.2 | |
| 20260503194534 | 0 | 311 | 3.0 | 7.0 | 0.00 | 0.00 | 0.00 | 1009.3 | |
| 20260503193029 | 0 | 298 | 2.0 | 6.0 | 0.00 | 0.00 | 0.00 | 1009.4 | |
| 20260503191534 | 0 | 281 | 1.0 | 5.0 | 0.00 | 0.00 | 0.00 | 1009.5 | |
| 20260503190025 | 0 | 359 | 2.0 | 8.0 | 0.00 | 0.00 | 0.00 | 1009.6 | |
| 20260503184516 | 0 | 77 | 3.0 | 11.0 | 0.00 | 0.00 | 0.00 | 1009.7 | |
| 20260503183010 | 0 | 46 | 2.0 | 11.0 | 0.00 | 0.00 | 0.00 | 1009.9 | |
| 20260503181508 | 0 | 56 | 1.0 | 7.0 | 0.00 | 0.00 | 0.00 | 1009.9 | |
| 20260503180003 | 0 | 6 | 1.0 | 6.0 | 0.00 | 0.00 | 0.00 | 1010.0 | |
| 20260503174559 | 0 | 48 | 1.0 | 5.0 | 0.00 | 0.00 | 0.00 | 1010.1 | |
| 20260503173104 | 0 | 323 | 1.0 | 7.0 | 0.00 | 0.00 | 0.00 | 1010.2 | |
| 20260503171548 | 0 | 301 | 4.0 | 10.0 | 0.00 | 0.00 | 0.00 | 1010.2 | |
| 20260503110104 | 0 | 1 | 0.0 | 0.0 | 0.00 | 0.00 | 0.00 | 1011.0 | |
| 20260503081516 | 0 | 1 | 1.0 | 2.0 | 0.00 | 0.00 | 0.00 | 1012.1 | |
| 20260503071553 | 0 | 1 | 0.0 | 0.0 | 0.00 | 0.00 | 0.00 | 1012.4 | |
| 20260503054534 | 0 | 1 | 0.0 | 0.0 | 0.00 | 0.00 | 0.00 | 1013.3 | |
| 20260503053023 | 0 | 1 | 0.0 | 2.0 | 0.00 | 0.00 | 0.00 | 1013.3 | |
| 20260503051515 | 0 | 1 | 0.0 | 0.0 | 0.00 | 0.00 | 0.00 | 1013.5 | |
| 20260503050010 | 0 | 1 | 0.0 | 0.0 | 0.00 | 0.00 | 0.00 | 1013.3 | |
| 20260503044505 | 0 | 1 | 0.0 | 1.0 | 0.00 | 0.00 | 0.00 | 1013.2 | |
| 20260503043003 | 0 | 1 | 0.0 | 1.0 | 0.00 | 0.00 | 0.00 | 1013.1 | |
| 20260503041556 | 0 | 1 | 0.0 | 1.0 | 0.00 | 0.00 | 0.00 | 1012.9 | |
| 20260503040058 | 0 | 1 | 0.0 | 1.0 | 0.00 | 0.00 | 0.00 | 1012.7 | |
| 20260503034549 | 0 | 1 | 0.0 | 3.0 | 0.00 | 0.00 | 0.00 | 1012.4 | |
| 20260503033045 | 0 | 1 | 0.0 | 2.0 | 0.00 | 0.00 | 0.00 | 1012.3 | |
| 20260503031539 | 0 | 1 | 1.0 | 4.0 | 0.00 | 0.00 | 0.00 | 1012.2 | |
| 20260503030034 | 0 | 1 | 1.0 | 5.0 | 0.00 | 0.00 | 0.00 | 1012.1 | |
| 20260503024530 | 0 | 14 | 2.0 | 6.0 | 0.00 | 0.00 | 0.00 | 1012.1 | |
| 20260503023024 | 0 | 359 | 2.0 | 7.0 | 0.00 | 0.00 | 0.00 | 1012.1 | |
| 20260503021538 | 0 | 42 | 3.0 | 7.0 | 0.00 | 0.00 | 0.00 | 1012.2 | |
| 20260503020016 | 0 | 27 | 2.0 | 5.0 | 0.00 | 0.00 | 0.00 | 1012.0 | |
| 20260503014511 | 0 | 52 | 2.0 | 7.0 | 0.00 | 0.00 | 0.00 | 1012.0 | |
| 20260503013008 | 0 | 6 | 3.0 | 6.0 | 0.00 | 0.00 | 0.00 | 1012.1 | |
| 20260503011503 | 0 | 96 | 2.0 | 6.0 | 0.00 | 0.00 | 0.00 | 1012.3 | |
| 20260503010104 | 0 | 336 | 2.0 | 9.0 | 0.00 | 0.00 | 0.00 | 1012.5 | |
| 20260503004605 | 0 | 354 | 3.0 | 8.0 | 0.00 | 0.00 | 0.00 | 1012.5 | |
| 20260503003102 | 0 | 302 | 4.0 | 8.0 | 0.00 | 0.00 | 0.00 | 1012.7 | |
| 20260503001600 | 0 | 308 | 4.0 | 11.0 | 0.00 | 0.00 | 0.00 | 1012.7 | |
| 20260503000040 | 0 | 294 | 5.0 | 12.0 | 0.00 | 0.00 | 0.00 | 1012.9 | |
| 20260502234537 | 0 | 293 | 4.0 | 11.0 | 0.00 | 0.00 | 0.00 | 1012.9 | |
| 20260502233031 | 0 | 311 | 5.0 | 10.0 | 0.00 | 0.00 | 0.00 | 1012.9 | |
| 20260502231527 | 0 | 293 | 5.0 | 10.0 | 0.00 | 0.00 | 0.00 | 1013.1 | |
| 20260502230022 | 0 | 300 | 5.0 | 10.0 | 0.00 | 0.00 | 0.00 | 1013.3 | |
| 20260502224530 | 0 | 319 | 5.0 | 13.0 | 0.00 | 0.00 | 0.00 | 1013.4 | |
| 20260502223012 | 0 | 298 | 5.0 | 11.0 | 0.00 | 0.00 | 0.00 | 1013.6 | |
| 20260502221508 | 0 | 281 | 5.0 | 10.0 | 0.00 | 0.00 | 0.00 | 1013.8 | |
| 20260502220003 | 0 | 281 | 6.0 | 12.0 | 0.00 | 0.00 | 0.00 | 1014.0 | |
| 20260502214559 | 0 | 283 | 7.0 | 11.0 | 0.00 | 0.00 | 0.00 | 1014.0 | |
| 20260502213106 | 0 | 322 | 6.0 | 12.0 | 0.00 | 0.00 | 0.00 | 1014.1 | |
| 20260502211550 | 0 | 257 | 7.0 | 13.0 | 0.00 | 0.00 | 0.00 | 1014.2 | |
| 20260502210044 | 0 | 290 | 7.0 | 15.0 | 0.00 | 0.00 | 0.00 | 1014.2 |